Regional Weather Roundup
Issued by NWS State College, PA

Home | Current Version | Previous Version | Graphics & Text | Print | Product List | Glossary Off
Versions: 1 2 3 4 5 6 7 8 9 10 11 12 13 14 15 16 17 18 19 20 21 22 23 24 25 26 27 28 29 30 31 32 33 34 35 36 37 38 39 40 41 42 43 44 45 46 47 48 49 50

000
ASUS41 KCTP 292010
RWRCTP

REGIONAL WEATHER ROUNDUP
NATIONAL WEATHER SERVICE STATE COLLEGE PA
400 PM EDT FRI AUG 29 2014

Note: "fair" indicates few or no clouds below 12,000 feet with no
significant weather and/or obstructions to visibility.

* = STATION THAT DOES NOT REPORT PRECIPITATION /E.G. RAIN...SNOW...ETC/
    THUNDER OR FOG.

PAZ002>004-007>009-013>016-020>023-029>032-292100-
WESTERN PENNSYLVANIA

CITY           SKY/WX    TMP DP  RH WIND       PRES   REMARKS
ERIE           SUNNY     76  54  46 N10       30.11F
MEADVILLE      SUNNY     74  51  44 E7        30.14F
FRANKLIN*      SUNNY     73  52  46 S5        30.16F
NEW CASTLE     FAIR      78  53  41 CALM      30.13F
BEAVER COUNTY  SUNNY     77  50  38 S8        30.13F
BUTLER*        SUNNY     75  52  43 E5        30.15F
PITTSBURGH INT MOSUNNY   78  50  37 SE7       30.12F
PITTSBURGH     SUNNY     77  50  38 E6        30.12F
INDIANA*       SUNNY     77  50  38 SE6       30.18F
LATROBE        SUNNY     79  54  41 CALM      30.13F
WASHINGTON CO* SUNNY     79  54  41 SE3       30.13F
$$

PAZ004>006-010>012-017>019-024>028-033>037-041-042-045-046-049>053-292100-
CENTRAL PENNSYLVANIA

CITY           SKY/WX    TMP DP  RH WIND       PRES   REMARKS
BRADFORD       SUNNY     70  49  47 VRB5      30.18F
DUBOIS         SUNNY     71  49  45 VRB6      30.17
CLEARFIELD     SUNNY     73  49  42 S7        30.18F
JOHNSTOWN      SUNNY     72  50  45 SE9       30.18F
ALTOONA        SUNNY     74  52  46 VRB6      30.18F
STATE COLLEGE  SUNNY     73  54  49 VRB6      30.18F
WILLIAMSPORT   MOSUNNY   75  51  43 VRB5      30.16F
SELINSGROVE    MOSUNNY   75  54  47 CALM      30.17F
FT INDIANTOWN  MOSUNNY   76  52  42 SW3       30.17F
CAPITAL CITY   SUNNY     75  51  43 E5        30.16F
HARRISBURG     PTSUNNY   77  52  41 CALM      30.15F
YORK           SUNNY     77  50  38 SW7       30.16F
$$

PAZ038>040-043-044-047-048-054-055-060>062-067>071-292100-
EASTERN PENNSYLVANIA

CITY           SKY/WX    TMP DP  RH WIND       PRES   REMARKS
SCRANTON       MOSUNNY   75  49  39 W5        30.17F
MOUNT POCONO   LGT RAIN  70  49  47 CALM      30.21S
ALLENTOWN      MOSUNNY   78  51  38 NW5       30.17F
QUAKERTOWN*    PTCLDY    77  54  44 MISG      30.18S
READING        PTSUNNY   77  51  40 CALM      30.16F
LANCASTER      MOSUNNY   75  51  43 E6        30.17F
COATESVILLE    MOCLDY    73  50  43 N3        30.19S
POTTSTOWN      MOSUNNY   76  51  41 SW6       30.18S
BLUE BELL      MOSUNNY   79  52  38 CALM      30.16S
DOYLESTOWN     SUNNY     76  51  41 CALM      30.16F
WILLOW GROVE   NOT AVBL
NORTH PHILA    SUNNY     79  48  33 VRB3      30.18S
PHILADELPHIA   PTSUNNY   78  49  35 VRB3      30.16S
$$


USA.gov is the U.S. government's official web portal to all federal, state and local government web resources and services.